Regional Weather Roundup
Issued by NWS

Home | Current Version | Previous Version | Graphics & Text | Print | Product List | Glossary On
Versions: 1 2 3 4 5 6 7 8 9 10 11 12 13 14 15 16 17 18 19 20 21 22 23 24 25 26 27 28 29 30 31 32 33 34 35 36 37 38 39 40 41 42 43 44 45 46 47 48 49 50
000
ASUS43 KOAX 230002
RWRNE

WEATHER ROUNDUP FOR NEBRASKA
NATIONAL WEATHER SERVICE OMAHA NE
700 PM CDT SAT JUL 22 2017

NOTES: SATELLITE DATA IS BEING USED TO AUGMENT CLOUD COVER ABOVE
       12000 FEET.
       "FAIR" INDICATES FEW OR NO CLOUDS BELOW 12,000 FEET WITH NO
       SIGNIFICANT WEATHER AND/OR OBSTRUCTIONS TO VISIBILITY.


NEZ001>004-019>022-054>056-230100-
NEBRASKA PANHANDLE

CITY           SKY/WX    TMP DP  RH WIND       PRES   REMARKS
SCOTTSBLUFF    MOSUNNY   86  55  34 S15G25    30.05S
6HR MIN TEMP:  86; 6HR MAX TEMP:  94;

ALLIANCE       MOSUNNY   88  49  25 E15       30.05F
6HR MIN TEMP:  85; 6HR MAX TEMP:  92;

CHADRON        PTSUNNY   87  51  28 SE14      30.02F
6HR MIN TEMP:  78; 6HR MAX TEMP:  94;

GORDON         FAIR      85  51  30 S3        30.06F
6HR MIN TEMP:  76; 6HR MAX TEMP:  89; 6HR PCP:  0.01;

KIMBALL        TSTM      70  56  60 W14G48    30.19R
SIDNEY         PTSUNNY   84  42  22 SE13      30.12F
6HR MIN TEMP:  84; 6HR MAX TEMP:  91;

$$

NEZ057>060-069>072-079>082-230100-
SOUTHWEST NEBRASKA

CITY           SKY/WX    TMP DP  RH WIND       PRES   REMARKS
NORTH PLATTE   PTSUNNY   88  51  28 S5        30.01S
6HR MIN TEMP:  80; 6HR MAX TEMP:  89;

IMPERIAL       MOSUNNY   88  42  20 SE12      30.03F
6HR MIN TEMP:  80; 6HR MAX TEMP:  91;

LEXINGTON      CLOUDY    81  64  57 SE8       29.97F
MCCOOK         CLOUDY    84  57  39 E7        29.99S
6HR MIN TEMP:  79; 6HR MAX TEMP:  97; 6HR PCP: TRACE;

OGALLALA       MOSUNNY   89  38  16 SE8       30.05S
$$

NEZ005>010-023>029-035>040-094-230100-
NORTH CENTRAL NEBRASKA

CITY           SKY/WX    TMP DP  RH WIND       PRES   REMARKS
VALENTINE      MOSUNNY   93  48  21 SE6       29.97F
6HR MIN TEMP:  87; 6HR MAX TEMP:  98;

AINSWORTH      MOSUNNY   90  49  24 CALM      29.99F
BROKEN BOW     PTSUNNY   88  54  31 E6        29.99F
6HR MIN TEMP:  79; 6HR MAX TEMP:  90; 6HR PCP: TRACE;

O`NEILL        MOSUNNY   86  59  40 SE5       29.97F
ORD            CLOUDY    84  70  62 NE8       29.96F
6HR MIN TEMP:  79; 6HR MAX TEMP:  87; 6HR PCP: TRACE;

THEDFORD       SUNNY     89  50  26 S3        30.02F
$$

NEZ041-046>049-061>064-073>077-083>087-230100-
SOUTH CENTRAL NEBRASKA

CITY           SKY/WX    TMP DP  RH WIND       PRES   REMARKS
GRAND ISLAND   FAIR      81  73  76 N12       29.96F
6HR MIN TEMP:  81; 6HR MAX TEMP:  91; 6HR PCP: TRACE;

AURORA         FAIR      81  74  80 N14       29.95F
HASTINGS       FAIR      83  71  67 N14G21    29.97S
6HR MIN TEMP:  83; 6HR MAX TEMP:  88;

HEBRON         FAIR      88  72  58 N9        29.89R HX  94
HOLDREGE       FAIR      81  70  69 N3        29.99S
KEARNEY        FAIR      80  72  76 N13       29.97F
YORK           FAIR      81  73  78 N10G18    29.94S
$$

NEZ011>018-030>034-042>045-230100-
NORTHEAST NEBRASKA

CITY           SKY/WX    TMP DP  RH WIND       PRES   REMARKS
NORFOLK        FAIR      79  71  76 W5        29.94F
6HR MIN TEMP:  78; 6HR MAX TEMP:  90; 6HR PCP: TRACE;

ALBION         FAIR      84  70  62 N8        29.95F
BLAIR          FAIR      82  73  75 N9        29.88F
COLUMBUS       FAIR      80  71  74 N7        29.91F
FREMONT        FAIR      82  72  71 N6        29.89F
TEKAMAH        FAIR      80  73  79 N5        29.88F
6HR MIN TEMP:  80; 6HR MAX TEMP:  90;

WAYNE          FAIR      80  79  97 NW5       29.93F
$$

NEZ050>053-065>068-078-088>093-230100-
SOUTHEAST NEBRASKA

CITY           SKY/WX    TMP DP  RH WIND       PRES   REMARKS
LINCOLN        FAIR      83  74  74 N13       29.90R
6HR MIN TEMP:  83; 6HR MAX TEMP:  93;

OMAHA EPPLEY   LGT RAIN  84  75  74 N14       29.87F HX  92
6HR MIN TEMP:  84; 6HR MAX TEMP:  93; 6HR PCP: TRACE;

BEATRICE       FAIR      87  74  63 NE12G17   29.86S HX  95
FALLS CITY     FAIR      86  78  77 NE7       29.82F HX  98
6HR MIN TEMP:  86; 6HR MAX TEMP:  95;

NEBRASKA CITY  FAIR      85  78  79 NE9       29.87R HX  97
PLATTSMOUTH    FAIR      85  76  73 N10G16    29.88R HX  95
$$

NEZ044-045-051>053-067-230100-
OMAHA AREA

CITY           SKY/WX    TMP DP  RH WIND       PRES   REMARKS
OMAHA EPPLEY   LGT RAIN  84  75  74 N14       29.87F HX  92
6HR MIN TEMP:  84; 6HR MAX TEMP:  93; 6HR PCP: TRACE;

BLAIR          FAIR      82  73  75 N9        29.88F
FREMONT        FAIR      82  72  71 N6        29.89F
MILLARD        FAIR      86  76  71 NE5       29.87F HX  96
PLATTSMOUTH    FAIR      85  76  73 N10G16    29.88R HX  95
WAHOO          FAIR      82  72  71 N3        29.89F
$$




USA.gov is the U.S. government's official web portal to all federal, state and local government web resources and services.